Preview of NWS' New Version of Forecast
This preview is not operational and should not be used for support decisions.

Regional Weather Roundup (RWR)

Issued by National Weather Service (NWS)

                            
000
ASUS45 KBOI 171810
RWRID 

IDAHO REGIONAL WEATHER ROUNDUP
NATIONAL WEATHER SERVICE BOISE ID
1100 AM MST SUN FEB 17 2019

NOTE: "FAIR" INDICATES FEW OR NO CLOUDS BELOW 12000 FEET
WITH NO SIGNIFICANT WEATHER AND/OR OBSTRUCTIONS TO VISIBILITY

IDZ012-014-171900-
SOUTHWEST IDAHO

  
CITY           SKY/WX    TMP DP  RH WIND       PRES   REMARKS
BOISE          CLOUDY    32  28  85 NW8       29.92R WCI  25          
CALDWELL       CLOUDY    34  31  88 W12       29.95R WCI  25          
MOUNTAIN HOME  CLOUDY    31  31 100 CALM      29.91R                  
$$

IDZ016-017-171900-
SOUTHCENTRAL IDAHO

  
CITY           SKY/WX    TMP DP  RH WIND       PRES   REMARKS
JEROME         LGT SNOW  26  23  88 N13       29.85R FOG     WCI  15  
TWIN FALLS     LGT SNOW  27  25  92 W12       29.85R FOG     WCI  17  
$$

IDZ019>023-171900-
SOUTHEAST IDAHO

  
CITY           SKY/WX    TMP DP  RH WIND       PRES   REMARKS
IDAHO FALLS    LGT SNOW  21  17  84 N7        29.87S VSB 1   WCI  12  
POCATELLO      PTSUNNY   29  24  82 NE9       29.86S WCI  20          
REXBURG        LGT SNOW  25  20  81 CALM      29.85S                  
$$

IDZ006-010-011-018-031-032-171900-
CENTRAL IDAHO MOUNTAINS

  
CITY           SKY/WX    TMP DP  RH WIND       PRES   REMARKS
MCCALL         CLOUDY    23  20  88 S3        29.79R                  
HAILEY         CLOUDY    16   9  73 NW10      29.85R WCI   3          
STANLEY          N/A     16   9  74 CALM      29.78R                  
SALMON         CLOUDY    26  18  71 N3        29.89S                  
CHALLIS        CLOUDY    21  12  68 N5        29.85R WCI  15          
$$

IDZ002-004-006-007-026-171900-
NORTHERN IDAHO

  
CITY           SKY/WX    TMP DP  RH WIND       PRES   REMARKS
LEWISTON       CLOUDY    34  29  82 W3        30.02R                  
LOWELL         NOT AVBL                                               
COEUR D'ALENE  LGT SNOW  23  19  85 N23       30.02R FOG     WCI   7  
MULLAN PASS    LGT SNOW  11   6  81 CALM      29.82R VSB 3/4          
$$